Weather History for Rochester, MN

Change the Weather History Date:

Saturday, January 12, 2013

  Actual Average Record
Temperature  
Mean Temperature 25 °F 15 °F  
Max Temperature 41 °F 23 °F 44 °F (1961)
Min Temperature 8 °F 8 °F -39 °F (1912)
Degree Days  
Heating Degree Days 40 50  
Month to date heating degree days 529 591  
Since 1 July heating degree days 3247 3669  
Cooling Degree Days 0 0  
Month to date cooling degree days 0 0  
Year to date cooling degree days 0 0  
Moisture  
Dew Point 15 °F    
Average Humidity 77    
Maximum Humidity 92    
Minimum Humidity 61    
Precipitation  
Precipitation T in 0.03 in 0.57 in (1993)
Month to date precipitation 0.20 0.33  
Year to date precipitation 0.20 0.33  
Snow  
Snow T in 0.40 in 8.40 in (1993)
Month to date snowfall 0.3 4.2  
Since 1 July snowfall 14.8 23.6  
Snow Depth 0.00 in    
Sea Level Pressure  
Sea Level Pressure 29.82 in    
Wind  
Wind Speed 19 mph (West)    
Max Wind Speed 33 mph    
Max Gust Speed 41 mph    
Visibility 9 miles    
Events Snow    
T = Trace of Precipitation, MM = Missing Value Source: NWS Daily Summary

Daily Weather History Graph

Daily Weather History Graph

Search for Another Location

Airport:

Trip Planner

Search our weather history database for the weather conditions in past years. The results will help you decide how hot, cold, wet, or windy it might be!

Date:

Astronomy

Jan. 12, 2013 Rise Set
Actual Time 7:42 AM CST 4:54 PM CST
Civil Twilight 7:10 AM CST 5:27 PM CST
Nautical Twilight 6:34 AM CST 6:02 PM CST
Astronomical Twilight 5:59 AM CST 6:37 PM CST
Moon 7:58 AM CST (1/12) 6:28 PM CST (1/12)
Length of Visible Light 10h 16m
Length of Day
9h 12m
New Moon, 1% of the Moon is Illuminated
Jan 12
New Moon
Jan 18
First Quarter
Jan 26
Full
Feb 3
Last Quarter
Feb 10
New

Hourly Weather History & Observations

Time (CST) Temp. Windchill Dew Point Humidity Pressure Visibility Wind Dir Wind Speed Gust Speed Precip Events Conditions
12:28 AM 41.0 °F 33.9 °F 37.4 °F 87% 29.44 in 8.0 mi SSW 12.7 mph - N/A   Overcast
12:54 AM 39.9 °F 32.5 °F 37.0 °F 89% 29.49 in 7.0 mi SW 12.7 mph - N/A   Overcast
1:54 AM 39.0 °F 30.3 °F 36.0 °F 89% 29.51 in 3.0 mi WSW 16.1 mph 26.5 mph 0.00 in   Overcast
2:26 AM 37.4 °F 28.5 °F 33.8 °F 87% 29.50 in 9.0 mi WSW 15.0 mph - 0.00 in   Mostly Cloudy
2:45 AM 35.6 °F 23.4 °F 32.0 °F 87% 29.52 in 10.0 mi West 25.3 mph 36.8 mph 0.00 in   Mostly Cloudy
2:52 AM 35.6 °F 23.4 °F 30.2 °F 81% 29.53 in 10.0 mi WSW 25.3 mph 36.8 mph 0.00 in   Mostly Cloudy
2:54 AM 35.1 °F 22.5 °F 30.0 °F 82% 29.57 in 10.0 mi WSW 26.5 mph 33.4 mph 0.00 in   Mostly Cloudy
3:07 AM 33.8 °F 20.3 °F 28.4 °F 81% 29.56 in 10.0 mi WSW 28.8 mph 41.4 mph N/A   Overcast
3:22 AM 32.0 °F 19.5 °F 28.4 °F 87% 29.56 in 10.0 mi WSW 21.9 mph 38.0 mph N/A   Overcast
3:30 AM 32.0 °F 19.5 °F 28.4 °F 87% 29.57 in 10.0 mi WSW 21.9 mph 31.1 mph N/A   Overcast
3:40 AM 30.2 °F 14.9 °F 26.6 °F 86% 29.57 in 10.0 mi WSW 31.1 mph 36.8 mph N/A   Overcast
3:54 AM 30.0 °F 17.2 °F 25.0 °F 82% 29.61 in 10.0 mi WSW 20.7 mph 38.0 mph N/A   Overcast
4:54 AM 27.0 °F 10.5 °F 23.0 °F 85% 29.67 in 10.0 mi WSW 31.1 mph 39.1 mph N/A   Overcast
5:50 AM 24.8 °F 8.4 °F 17.6 °F 74% 29.68 in 10.0 mi WSW 27.6 mph 40.3 mph N/A   Overcast
5:54 AM 25.0 °F 9.5 °F 18.0 °F 75% 29.73 in 10.0 mi WSW 24.2 mph 38.0 mph N/A   Overcast
6:54 AM 21.0 °F 3.9 °F 12.9 °F 71% 29.80 in 10.0 mi West 25.3 mph 38.0 mph N/A   Overcast
7:54 AM 19.0 °F 0.3 °F 10.0 °F 68% 29.85 in 9.0 mi West 28.8 mph 35.7 mph 0.00 in   Overcast
8:54 AM 18.0 °F 0.6 °F 9.0 °F 68% 29.88 in 8.0 mi West 23.0 mph 33.4 mph 0.00 in Snow Light Snow
9:54 AM 18.0 °F 1.7 °F 9.0 °F 68% 29.91 in 10.0 mi West 19.6 mph 28.8 mph 0.00 in   Overcast
10:54 AM 17.1 °F -0.3 °F 7.0 °F 65% 29.96 in 10.0 mi West 21.9 mph 27.6 mph 0.00 in   Overcast
11:54 AM 17.1 °F 1.0 °F 8.1 °F 68% 29.94 in 7.0 mi West 18.4 mph - 0.00 in Snow Light Snow
12:54 PM 17.1 °F 1.0 °F 8.1 °F 68% 29.98 in 5.0 mi West 18.4 mph - 0.00 in Snow Light Snow
1:54 PM 16.0 °F 0.6 °F 7.0 °F 68% 29.98 in 9.0 mi West 16.1 mph 26.5 mph 0.00 in Snow Light Snow
2:54 PM 17.1 °F 2.0 °F 8.1 °F 68% 29.99 in 9.0 mi West 16.1 mph - 0.00 in   Overcast
3:54 PM 16.0 °F 0.6 °F 7.0 °F 68% 30.01 in 7.0 mi West 16.1 mph 21.9 mph 0.00 in Snow Light Snow
4:54 PM 15.1 °F -0.6 °F 6.1 °F 68% 30.06 in 4.0 mi West 16.1 mph - 0.00 in Snow Light Snow
5:54 PM 14.0 °F -0.8 °F 3.9 °F 64% 30.06 in 10.0 mi West 13.8 mph - 0.00 in   Overcast
6:54 PM 12.2 °F -3.7 °F 3.2 °F 67% 29.98 in 5.0 mi WNW 15.0 mph - N/A Snow Light Snow
7:54 PM 12.0 °F -4.0 °F 3.0 °F 67% 30.09 in 10.0 mi West 15.0 mph - 0.00 in   Overcast
8:14 PM 10.4 °F -6.6 °F 3.2 °F 73% 30.03 in 10.0 mi West 16.1 mph - N/A   Scattered Clouds
8:54 PM 10.9 °F -4.7 °F 1.9 °F 67% 30.09 in 10.0 mi WNW 13.8 mph - N/A   Clear
9:54 PM 10.0 °F -5.9 °F 3.0 °F 73% 30.09 in 5.0 mi WNW 13.8 mph - 0.00 in Snow Light Snow
10:54 PM 9.0 °F -6.6 °F 1.0 °F 70% 30.10 in 10.0 mi NW 12.7 mph - 0.00 in   Mostly Cloudy
11:54 PM 8.1 °F -7.0 °F -0.9 °F 67% 30.09 in 10.0 mi NW 11.5 mph - N/A   Scattered Clouds